Location: ???? ?????
(30.0052°N, 31.2891°E)
Time: 21:12:41
(UTC+00:00)

Cosmos 1656 Rocket - Pass Details

Date: 26 May 2022
Orbit: 796 x 845 km, 71.1° (Epoch: 05 July)

Event Time Altitude Azimuth Distance (km) Brightness Sun altitude
Rises 02:07:27 0° 328° (NNW) 3,301 6.8 -10.1°
Reaches altitude 10° 02:10:03 10° 319° (NW) 2,369 5.9 -9.6°
Maximum altitude 02:14:50 33° 257° (WSW) 1,321 4.2 -8.7°
Drops below altitude 10° 02:19:38 10° 194° (SSW) 2,375 5.6 -7.8°
Sets 02:22:16 0° 185° (S) 3,309 6.4 -7.3°
